Temp
-17 -17 -18 -18 -18 -18 -18 -19 -19 -19 -20 -20 -20 -21 -21 -22 -22 -23 -23 -24 -24 -25 -25 -26 -26 -26 -26 -26 -26 -26 -26 -26 -25 -25 -25 -25 -24 -22 -21 -21 -21 -20 -20 -20
-17 -17 -18 -18 -18 -18 -18 -19 -19 -19 -20 -20 -20 -21 -21 -22 -22 -23 -23 -23 -24 -24 -25 -25 -26 -26 -26 -26 -26 -26 -26 -26 -26 -25 -25 -25 -25 -24 -23 -21 -22 -21 -20 -21
-17 -17 -18 -18 -18 -18 -18 -19 -19 -19 -19 -20 -20 -21 -21 -22 -22 -23 -23 -23 -24 -24 -25 -25 -25 -26 -26 -27 -27 -27 -26 -26 -26 -26 -26 -25 -25 -25 -24 -22 -22 -23 -21 -21
-17 -17 -17 -18 -18 -18 -18 -19 -19 -19 -19 -20 -20 -21 -21 -22 -22 -23 -23 -23 -24 -24 -25 -25 -25 -26 -26 -27 -27 -27 -27 -27 -26 -26 -26 -26 -25 -25 -24 -24 -23 -23 -21 -20
-17 -17 -18 -18 -18 -18 -18 -19 -19 -19 -19 -20 -20 -21 -21 -22 -22 -23 -23 -23 -24 -24 -24 -25 -26 -26 -26 -27 -28 -28 -27 -27 -27 -27 -26 -26 -25 -25 -25 -25 -23 -23 -22 -21
-18 -18 -18 -18 -18 -18 -18 -19 -19 -19 -19 -20 -20 -21 -21 -22 -22 -22 -23 -23 -24 -24 -24 -25 -25 -26 -26 -27 -28 -28 -28 -28 -27 -27 -26 -26 -25 -25 -25 -25 -25 -24 -23 -22
-18 -18 -18 -18 -18 -18 -18 -19 -19 -19 -19 -20 -20 -21 -21 -22 -22 -23 -23 -23 -24 -24 -24 -25 -25 -26 -26 -27 -28 -29 -29 -28 -28 -27 -27 -26 -26 -25 -25 -25 -25 -25 -24 -23
-18 -18 -18 -18 -18 -18 -19 -19 -19 -19 -19 -20 -20 -20 -21 -21 -22 -22 -23 -23 -23 -24 -24 -25 -25 -25 -26 -26 -27 -29 -29 -29 -28 -28 -27 -27 -26 -26 -25 -25 -24 -25 -25 -24
-18 -18 -18 -18 -18 -18 -18 -19 -19 -19 -19 -20 -20 -20 -20 -21 -22 -22 -23 -23 -23 -24 -24 -25 -25 -25 -26 -26 -27 -29 -29 -29 -29 -28 -28 -27 -27 -26 -26 -25 -25 -24 -25 -25
-18 -18 -18 -18 -18 -18 -19 -19 -19 -19 -19 -19 -20 -20 -20 -21 -22 -22 -23 -23 -23 -24 -24 -25 -25 -25 -26 -26 -26 -28 -29 -30 -29 -29 -28 -28 -27 -27 -27 -26 -26 -25 -24 -25
-18 -18 -18 -18 -18 -19 -19 -19 -19 -19 -19 -20 -20 -20 -20 -21 -21 -22 -22 -23 -23 -24 -24 -25 -25 -25 -25 -26 -26 -27 -29 -30 -30 -29 -29 -28 -27 -27 -27 -26 -26 -26 -25 -25
-18 -18 -18 -18 -19 -19 -19 -19 -19 -19 -19 -20 -20 -20 -20 -21 -21 -22 -22 -23 -23 -24 -24 -25 -25 -25 -25 -26 -26 -27 -28 -30 -30 -30 -29 -28 -28 -27 -27 -26 -26 -26 -26 -25
-18 -18 -18 -18 -19 -19 -19 -19 -19 -19 -19 -20 -20 -20 -20 -21 -21 -22 -22 -23 -23 -24 -24 -25 -25 -25 -25 -26 -26 -27 -27 -29 -30 -30 -29 -29 -29 -28 -28 -27 -26 -26 -26 -25
-18 -18 -18 -18 -19 -19 -19 -19 -19 -19 -19 -20 -20 -20 -21 -21 -21 -22 -22 -23 -23 -23 -24 -25 -25 -25 -26 -26 -26 -27 -27 -28 -30 -30 -30 -29 -29 -29 -28 -28 -27 -27 -26 -26
-18 -18 -19 -19 -19 -19 -19 -19 -19 -19 -19 -20 -20 -20 -21 -21 -21 -22 -22 -23 -23 -23 -24 -25 -25 -25 -26 -26 -26 -26 -27 -28 -29 -30 -30 -30 -29 -29 -29 -28 -28 -28 -27 -26
-18 -18 -18 -19 -19 -19 -19 -19 -19 -19 -20 -20 -20 -20 -21 -21 -21 -22 -22 -22 -23 -23 -24 -24 -25 -26 -26 -26 -26 -27 -27 -28 -29 -30 -30 -30 -30 -30 -29 -29 -29 -28 -28 -27
-18 -18 -18 -19 -19 -19 -19 -19 -20 -20 -20 -20 -20 -20 -21 -21 -21 -21 -22 -22 -23 -23 -24 -24 -25 -26 -26 -26 -27 -27 -27 -28 -28 -30 -30 -30 -30 -30 -30 -29 -29 -29 -28 -28
-18 -18 -18 -19 -19 -19 -19 -20 -20 -20 -20 -20 -20 -21 -21 -21 -21 -21 -22 -22 -23 -23 -24 -24 -25 -25 -26 -26 -27 -27 -27 -28 -28 -29 -30 -30 -30 -30 -30 -30 -29 -29 -29 -28
-18 -18 -19 -19 -19 -19 -19 -20 -20 -20 -20 -20 -20 -20 -21 -21 -21 -21 -22 -22 -23 -23 -24 -24 -25 -25 -26 -26 -27 -27 -27 -28 -28 -29 -30 -30 -30 -30 -30 -30 -30 -30 -29 -29
-18 -18 -19 -19 -19 -19 -19 -19 -20 -20 -20 -20 -20 -20 -21 -21 -21 -21 -22 -22 -23 -23 -24 -24 -25 -25 -26 -26 -27 -27 -27 -28 -28 -28 -30 -31 -30 -30 -30 -30 -30 -30 -30 -30
-18 -19 -19 -19 -19 -19 -19 -20 -20 -20 -20 -20 -20 -20 -20 -21 -21 -21 -22 -22 -23 -23 -24 -24 -25 -25 -26 -26 -27 -27 -27 -28 -28 -28 -30 -31 -31 -30 -30 -30 -30 -30 -30 -30
-18 -18 -19 -19 -19 -19 -20 -20 -20 -20 -20 -20 -20 -20 -20 -21 -21 -21 -22 -22 -23 -23 -24 -24 -25 -25 -26 -26 -27 -27 -28 -28 -28 -29 -30 -31 -31 -31 -30 -30 -30 -30 -30 -30
-18 -19 -19 -19 -19 -20 -20 -20 -20 -20 -20 -20 -20 -20 -20 -21 -21 -21 -22 -22 -23 -23 -24 -24 -25 -26 -26 -26 -27 -27 -28 -28 -28 -29 -29 -31 -31 -31 -31 -31 -31 -30 -31 -31
-19 -19 -19 -19 -19 -19 -19 -19 -19 -19 -19 -20 -20 -20 -20 -21 -21 -21 -22 -22 -23 -23 -24 -25 -25 -26 -26 -27 -27 -27 -28 -28 -28 -29 -29 -31 -31 -31 -31 -31 -31 -31 -31 -31
-18 -18 -19 -19 -19 -19 -19 -19 -19 -19 -19 -19 -20 -20 -20 -21 -21 -21 -22 -22 -23 -24 -24 -24 -25 -26 -26 -27 -27 -28 -28 -28 -29 -29 -29 -31 -31 -31 -31 -31 -31 -31 -31 -31
-18 -18 -18 -18 -18 -19 -19 -19 -19 -19 -19 -19 -20 -20 -20 -21 -21 -22 -22 -22 -23 -24 -24 -25 -25 -26 -27 -27 -27 -28 -28 -28 -29 -29 -30 -31 -32 -32 -31 -31 -31 -31 -31 -31
-18 -18 -18 -18 -18 -19 -19 -19 -19 -19 -20 -20 -20 -20 -21 -21 -21 -22 -22 -23 -23 -24 -25 -25 -26 -26 -27 -27 -28 -28 -28 -29 -29 -30 -30 -31 -32 -32 -32 -32 -32 -32 -32 -32
Height
5754 5752 5749 5746 5743 5739 5734 5730 5726 5720 5713 5707 5700 5691 5684 5675 5667 5658 5650 5640 5630 5620 5611 5601 5592 5584 5576 5570 5564 5559 5555 5550 5547 5542 5537 5531 5526 5523 5521 5518 5514 5512 5513 5514
5752 5749 5746 5744 5742 5737 5732 5728 5723 5717 5711 5705 5698 5691 5683 5675 5666 5658 5649 5640 5630 5621 5611 5600 5590 5581 5572 5565 5558 5553 5548 5544 5540 5536 5530 5526 5521 5517 5512 5511 5506 5502 5503 5507
5749 5746 5744 5743 5739 5734 5730 5726 5721 5715 5710 5703 5696 5689 5681 5674 5666 5658 5649 5640 5631 5622 5611 5600 5589 5578 5569 5561 5554 5547 5542 5538 5533 5529 5524 5520 5515 5511 5507 5504 5500 5494 5493 5499
5746 5744 5742 5739 5735 5732 5728 5723 5718 5714 5708 5701 5695 5687 5680 5673 5666 5657 5648 5640 5631 5621 5611 5599 5588 5577 5565 5556 5549 5543 5537 5532 5528 5523 5519 5514 5510 5506 5501 5498 5495 5490 5487 5489
5743 5740 5739 5736 5733 5729 5724 5721 5716 5712 5706 5699 5692 5685 5678 5671 5664 5656 5647 5639 5629 5620 5610 5599 5587 5575 5564 5552 5543 5537 5532 5527 5523 5519 5514 5510 5506 5502 5497 5493 5489 5486 5483 5482
5740 5737 5735 5733 5730 5726 5721 5718 5714 5708 5702 5696 5689 5683 5676 5669 5663 5654 5646 5637 5628 5619 5608 5597 5586 5574 5561 5549 5539 5532 5527 5523 5518 5514 5510 5506 5502 5498 5494 5490 5485 5482 5479 5476
5737 5734 5732 5729 5726 5722 5720 5718 5710 5705 5699 5693 5687 5681 5674 5667 5660 5652 5645 5636 5627 5617 5607 5596 5585 5573 5560 5547 5535 5527 5521 5516 5513 5509 5505 5500 5496 5493 5490 5487 5483 5478 5475 5472
5734 5731 5729 5726 5723 5720 5716 5711 5707 5702 5696 5690 5684 5678 5671 5664 5657 5650 5643 5634 5625 5616 5605 5595 5584 5572 5559 5546 5532 5522 5516 5511 5507 5503 5500 5496 5492 5487 5485 5482 5480 5477 5473 5469
5731 5728 5725 5722 5719 5715 5711 5707 5702 5698 5693 5687 5681 5674 5667 5661 5654 5648 5640 5632 5623 5614 5604 5594 5583 5572 5559 5546 5533 5521 5513 5507 5503 5498 5495 5492 5489 5484 5480 5478 5475 5473 5471 5468
5725 5724 5721 5718 5715 5712 5708 5703 5699 5694 5688 5683 5678 5671 5665 5658 5652 5645 5637 5629 5620 5612 5602 5592 5582 5571 5559 5547 5534 5521 5512 5505 5500 5496 5491 5488 5485 5482 5479 5475 5473 5470 5467 5464
5720 5720 5717 5714 5712 5708 5704 5700 5695 5690 5684 5679 5674 5668 5662 5655 5649 5642 5634 5626 5618 5610 5600 5591 5581 5570 5559 5548 5535 5521 5511 5504 5498 5494 5489 5485 5481 5479 5476 5473 5472 5470 5468 5465
5717 5715 5713 5711 5708 5704 5700 5695 5691 5685 5680 5675 5669 5664 5658 5652 5646 5638 5631 5623 5616 5607 5598 5589 5579 5569 5559 5548 5536 5524 5511 5503 5497 5492 5488 5483 5478 5474 5473 5470 5467 5466 5466 5465
5713 5710 5708 5705 5702 5700 5696 5691 5686 5681 5676 5671 5665 5660 5654 5648 5641 5635 5627 5620 5613 5605 5596 5586 5577 5567 5558 5547 5536 5524 5513 5503 5496 5491 5486 5482 5478 5473 5469 5466 5465 5462 5460 5460
5708 5706 5704 5701 5698 5695 5691 5687 5682 5677 5672 5667 5661 5656 5650 5644 5637 5631 5624 5617 5610 5601 5593 5584 5575 5566 5556 5546 5535 5524 5513 5502 5495 5489 5484 5480 5476 5472 5468 5464 5461 5459 5458 5453
5703 5701 5699 5696 5693 5690 5686 5682 5678 5673 5668 5662 5657 5652 5646 5640 5634 5628 5621 5613 5606 5598 5590 5582 5573 5564 5553 5543 5534 5524 5514 5503 5494 5487 5482 5477 5473 5469 5466 5462 5459 5455 5452 5451
5698 5696 5694 5691 5688 5684 5681 5677 5673 5668 5663 5658 5653 5648 5641 5636 5630 5624 5617 5610 5603 5595 5587 5579 5570 5561 5551 5542 5532 5522 5513 5503 5493 5486 5480 5474 5470 5466 5462 5459 5456 5453 5450 5447
5692 5690 5687 5684 5681 5678 5675 5672 5668 5663 5658 5652 5648 5642 5637 5632 5626 5619 5613 5606 5599 5592 5584 5576 5567 5558 5549 5540 5530 5521 5511 5501 5491 5483 5477 5471 5466 5462 5459 5455 5452 5449 5446 5444
5685 5683 5680 5677 5674 5672 5669 5665 5662 5657 5652 5647 5642 5637 5633 5627 5621 5615 5609 5602 5595 5588 5580 5572 5564 5555 5547 5538 5528 5518 5509 5499 5489 5480 5474 5468 5463 5458 5455 5451 5448 5445 5442 5439
5677 5675 5673 5670 5668 5665 5662 5659 5655 5651 5646 5642 5637 5632 5627 5622 5617 5611 5604 5597 5591 5583 5576 5568 5560 5552 5544 5535 5525 5516 5506 5496 5486 5476 5469 5464 5459 5454 5450 5446 5443 5440 5438 5435
5669 5668 5665 5663 5661 5658 5655 5652 5649 5645 5640 5636 5632 5627 5623 5617 5611 5605 5599 5593 5585 5579 5572 5564 5557 5548 5540 5532 5522 5512 5503 5493 5483 5473 5464 5458 5453 5449 5445 5441 5438 5435 5432 5430
5662 5659 5657 5656 5654 5651 5649 5646 5643 5640 5636 5631 5627 5622 5617 5612 5607 5601 5594 5588 5582 5575 5567 5559 5552 5544 5536 5528 5519 5510 5500 5490 5480 5470 5460 5453 5448 5443 5439 5436 5433 5430 5427 5425
5654 5652 5650 5649 5648 5645 5643 5641 5638 5634 5631 5627 5623 5618 5614 5609 5603 5597 5590 5584 5577 5570 5562 5555 5547 5539 5532 5523 5515 5506 5497 5487 5477 5466 5456 5449 5444 5439 5434 5430 5427 5424 5421 5419
5647 5645 5644 5642 5641 5639 5637 5634 5632 5629 5626 5622 5618 5613 5608 5603 5597 5591 5585 5578 5571 5564 5556 5549 5542 5534 5527 5518 5510 5501 5493 5484 5474 5463 5453 5444 5439 5434 5429 5425 5421 5418 5415 5413
5640 5638 5637 5636 5635 5633 5631 5629 5626 5624 5620 5616 5612 5607 5602 5597 5592 5585 5578 5572 5565 5558 5550 5543 5536 5529 5521 5513 5505 5496 5488 5479 5470 5460 5450 5441 5435 5429 5425 5420 5416 5413 5409 5406
5633 5631 5630 5629 5628 5626 5625 5623 5621 5618 5614 5610 5606 5601 5597 5591 5585 5579 5572 5565 5558 5551 5545 5537 5530 5522 5514 5506 5499 5491 5482 5474 5465 5456 5446 5437 5431 5426 5420 5415 5411 5407 5404 5401
5625 5625 5624 5622 5622 5621 5619 5617 5615 5612 5608 5604 5600 5595 5589 5583 5577 5571 5565 5558 5551 5544 5538 5531 5523 5516 5508 5500 5493 5484 5476 5468 5459 5450 5441 5433 5427 5422 5416 5411 5407 5402 5398 5395
5618 5618 5618 5616 5615 5614 5612 5609 5607 5604 5600 5596 5591 5586 5581 5576 5569 5563 5556 5550 5543 5537 5531 5523 5516 5509 5501 5494 5485 5477 5469 5461 5452 5444 5436 5429 5423 5417 5412 5407 5402 5398 5394 5390
Wind_Speed
9 10 12 15 18 19 21 23 25 27 29 30 31 33 35 37 39 40 42 43 45 45 43 40 38 36 35 33 31 29 28 30 28 30 27 27 28 29 33 30 32 29 33 32
8 9 13 16 19 20 22 23 25 27 28 31 32 32 34 36 37 40 41 44 45 46 47 47 43 37 35 32 30 28 25 26 26 27 27 25 24 26 29 30 27 26 34 34
8 10 13 17 20 22 23 24 26 28 29 30 33 34 34 35 37 38 41 43 44 47 48 50 52 48 39 33 30 28 25 23 25 25 26 24 24 25 25 29 24 24 24 31
10 11 14 18 20 23 24 25 27 28 29 31 32 33 35 36 36 38 40 42 45 47 49 49 52 54 51 38 32 29 25 23 22 23 24 25 23 23 24 25 27 20 23 32
12 14 16 18 20 22 24 25 27 28 29 31 32 34 35 36 37 39 40 42 45 47 49 52 53 55 57 47 35 30 27 24 23 23 22 23 21 20 22 22 23 25 15 26
12 14 16 17 18 20 22 24 27 28 29 31 32 34 35 36 38 39 41 43 45 47 49 52 54 57 59 54 41 32 28 24 22 22 21 21 20 19 17 19 19 24 19 17
12 13 14 15 17 18 21 23 26 28 29 30 32 33 35 37 39 40 42 44 46 48 50 52 55 58 60 60 47 35 29 25 22 21 21 22 22 20 18 16 16 17 22 18
11 11 13 15 17 19 21 22 25 28 30 31 32 33 35 37 39 41 42 44 47 48 50 52 55 58 61 62 53 39 31 27 25 22 20 21 22 22 20 17 14 13 16 22
11 10 13 15 18 20 23 25 26 28 30 31 33 34 36 37 38 41 42 44 47 49 50 52 55 57 60 62 58 42 33 29 26 24 22 20 19 20 21 18 16 16 14 15
12 12 13 15 18 21 23 25 27 29 30 31 33 35 36 37 38 40 42 44 46 48 50 51 54 57 60 61 63 47 34 29 26 24 22 21 18 18 17 17 16 15 16 16
14 14 15 17 20 22 23 25 27 29 30 31 32 34 36 37 37 39 41 43 45 47 49 51 53 56 58 61 61 56 39 29 27 24 23 22 19 16 16 14 12 11 13 15
16 17 17 18 21 24 25 26 28 30 32 32 32 33 35 36 37 38 40 41 43 46 48 50 52 54 56 59 60 61 47 33 27 26 23 22 21 20 15 14 14 14 11 12
17 19 19 20 22 24 26 27 29 31 34 34 33 33 34 36 36 37 39 41 43 45 47 49 51 53 55 58 60 59 55 39 29 26 25 22 21 20 20 18 15 16 16 16
19 21 22 23 25 27 28 30 30 32 34 35 33 33 33 35 36 37 38 40 42 44 46 48 50 53 55 57 58 57 59 46 33 27 25 24 21 19 18 17 18 16 16 19
21 22 23 25 26 28 30 30 31 33 34 34 32 32 33 34 36 36 38 39 41 44 46 47 50 51 53 55 57 58 57 53 38 30 27 24 23 20 19 17 17 17 18 17
23 25 26 27 27 29 30 30 31 33 34 34 31 31 33 34 35 36 37 39 41 43 45 47 49 50 51 53 55 57 56 57 45 33 29 26 24 22 20 19 18 17 16 18
26 28 30 30 29 30 30 31 31 33 34 32 30 32 32 34 35 36 37 39 41 43 45 47 48 50 52 52 53 55 54 57 52 36 30 28 26 23 22 20 18 17 17 17
26 28 30 31 30 30 30 30 31 33 33 30 31 31 31 33 34 35 37 39 41 43 45 46 48 49 51 52 53 54 55 57 56 43 30 28 27 25 23 21 20 19 18 17
27 27 27 28 28 29 29 29 31 32 30 29 30 30 31 32 34 35 37 39 40 42 44 46 47 49 51 52 53 54 55 55 57 51 35 28 27 26 24 23 21 20 19 18
26 26 26 25 26 27 27 28 30 29 29 30 29 30 30 32 33 35 37 38 41 42 44 46 48 49 51 52 53 53 55 54 57 53 39 30 28 27 25 24 22 20 20 19
25 24 23 23 23 24 26 27 28 29 30 29 29 30 31 32 34 36 38 39 41 43 44 46 48 50 51 52 52 53 55 55 58 55 45 32 29 28 26 25 24 22 20 19
22 22 21 20 20 22 24 26 28 29 29 29 30 31 32 34 36 38 39 41 43 44 46 47 49 50 52 53 53 54 54 54 57 54 47 34 30 29 27 25 24 24 22 20
21 18 17 18 19 20 23 25 25 26 27 28 30 32 33 35 37 39 41 42 44 45 46 48 49 50 52 53 53 54 54 54 56 54 47 36 30 30 29 27 25 24 23 22
15 15 16 18 20 21 22 23 24 24 26 28 30 33 35 37 39 40 42 43 45 46 47 48 49 50 52 53 53 54 54 54 56 55 48 38 31 30 30 28 26 25 23 23
14 15 16 18 19 20 20 22 24 26 28 31 33 36 38 39 41 42 43 44 45 46 48 50 50 50 51 52 53 53 53 54 56 55 49 39 32 30 30 29 28 25 24 23
14 16 16 16 17 19 21 24 27 30 33 35 37 38 40 41 42 43 44 45 46 47 48 50 51 51 52 52 53 52 52 53 54 54 48 40 32 30 29 29 29 28 25 24
12 14 16 17 20 22 25 27 29 32 34 37 39 41 42 43 43 44 45 46 47 48 48 49 50 51 52 52 52 52 51 52 53 54 49 41 35 32 30 29 28 28 27 25
Wind_Direction
330 347 353 356 352 353 355 354 354 354 356 359 2 4 5 9 10 8 8 7 6 2 356 346 340 336 331 325 320 314 308 309 309 308 315 317 315 297 287 292 295 266 246 236
316 342 348 345 348 348 349 349 347 349 350 351 356 359 3 4 6 8 6 7 6 5 4 3 354 343 338 334 327 321 314 312 313 312 313 319 322 316 309 298 303 271 240 240
304 333 343 343 347 349 347 345 345 345 345 347 351 355 358 1 3 3 5 7 6 4 2 3 4 360 345 339 337 332 324 318 317 318 315 320 322 322 322 311 317 284 249 241
298 323 335 340 344 347 348 346 344 343 343 346 347 351 354 356 358 360 2 3 4 4 3 0 2 1 358 344 338 335 332 325 321 323 324 323 324 321 324 322 320 333 269 241
299 316 326 333 338 342 344 345 344 343 345 348 347 347 351 352 354 357 358 359 2 2 2 3 1 0 2 352 341 336 334 332 327 323 325 326 328 324 322 328 326 325 284 259
301 311 321 329 334 337 340 342 342 344 346 348 349 347 347 348 348 355 354 358 358 359 1 1 1 1 1 357 348 338 334 329 324 321 321 323 328 334 325 325 332 328 338 253
303 315 322 334 336 337 339 339 341 344 345 347 348 347 347 346 347 351 352 356 355 357 359 1 1 1 1 359 353 344 335 331 327 323 323 324 325 329 334 324 332 335 329 336
299 315 321 340 339 345 344 341 339 341 343 345 345 346 347 347 347 348 349 353 353 355 356 359 0 2 2 0 357 348 341 335 333 329 328 325 324 325 329 330 326 336 333 327
300 315 321 337 336 343 345 348 344 340 342 343 343 345 347 346 346 346 348 350 350 352 354 357 359 1 2 1 1 352 343 338 335 332 330 331 331 328 328 328 326 324 334 337
298 306 317 329 333 337 341 344 345 343 341 341 342 343 344 345 345 344 347 348 348 349 352 355 357 0 2 2 3 358 349 340 336 333 331 329 332 328 326 327 327 320 321 329
289 303 316 326 327 332 337 339 343 344 342 339 339 341 342 342 343 344 346 345 345 347 350 353 356 359 1 3 4 2 355 345 339 337 333 330 327 327 320 313 313 312 307 313
291 300 313 321 326 329 333 336 340 343 343 339 337 339 339 339 342 343 344 343 344 346 349 352 355 357 360 3 5 5 1 351 342 338 335 331 329 325 323 317 309 303 295 288
289 298 306 314 321 325 329 332 336 340 342 339 336 336 337 337 339 341 342 342 344 346 349 351 353 355 358 1 4 6 5 357 347 340 336 333 329 327 326 320 313 308 300 291
288 294 303 311 316 320 325 329 331 336 338 338 334 334 334 336 336 340 341 341 343 346 348 350 352 354 356 359 2 4 5 1 352 344 338 333 329 324 323 322 319 314 308 303
287 295 303 308 313 317 321 324 328 331 334 334 331 332 331 334 336 338 339 340 343 344 347 350 351 353 355 357 360 2 4 2 355 346 340 335 331 326 321 320 319 316 313 306
291 297 301 304 309 313 316 320 324 326 329 329 328 330 330 333 336 337 337 339 342 343 345 349 349 351 354 356 357 359 1 1 357 348 341 336 332 329 324 318 317 318 314 312
290 297 298 302 305 309 313 317 320 323 325 325 327 328 330 332 334 334 335 338 340 341 344 347 347 350 351 353 355 357 357 359 357 349 342 337 332 328 325 318 313 313 312 307
292 292 293 296 301 306 311 313 317 319 321 322 326 327 328 329 331 333 335 337 339 340 342 344 347 348 349 351 353 355 355 358 356 352 341 336 333 329 325 320 314 310 311 310
295 296 296 298 302 305 308 312 314 317 318 320 322 323 325 328 331 333 333 335 336 338 340 342 345 346 347 349 351 353 354 354 356 351 342 333 332 328 324 322 316 309 307 311
298 299 299 302 302 304 308 309 312 313 314 319 320 322 325 327 328 330 331 333 334 336 337 340 343 345 345 348 350 351 352 351 355 350 344 333 329 328 324 320 318 312 305 303
295 297 298 299 301 305 307 309 311 313 318 319 320 321 323 326 328 329 329 332 333 335 337 339 342 342 343 345 348 349 350 350 353 351 346 336 330 329 324 319 316 314 307 301
292 294 296 301 306 307 309 311 314 317 319 320 321 322 325 328 329 329 330 332 333 334 336 338 340 340 342 344 346 347 348 349 352 350 346 339 331 330 327 321 315 313 310 302
289 291 295 299 302 305 306 310 317 319 320 320 322 325 327 328 327 328 330 331 331 333 334 337 338 338 341 342 345 345 346 349 350 350 347 341 333 330 330 325 317 312 309 304
286 293 295 297 299 302 310 317 316 316 318 319 322 324 324 325 327 327 328 329 330 331 333 334 336 337 339 340 343 344 345 347 349 351 349 343 336 330 329 328 324 316 309 304
298 301 302 305 308 312 315 316 316 317 318 319 321 322 322 323 325 325 327 327 329 330 331 332 335 335 337 339 342 343 343 345 348 349 349 345 337 333 329 328 326 322 314 307
291 297 303 310 313 314 315 316 318 318 319 319 319 319 320 321 322 323 324 325 327 328 330 331 332 334 336 338 340 340 341 343 346 348 345 344 337 334 332 327 326 325 321 314
285 294 299 303 304 308 312 314 315 315 315 315 316 316 317 318 320 321 322 323 325 326 328 329 330 333 335 337 338 338 339 342 345 346 344 341 336 334 333 330 326 325 323 320